Location: Multiple Mirror Telescope
(31.6889°N, 110.8853°W)
Time: 14:00:58
(UTC-07:00)

Hubble Space Telescope - Pass Details

Date: 29 November 2023
Orbit: 516 x 519 km, 28.5° (Epoch: 27 February)

Event Time Altitude Azimuth Distance (km) Brightness Sun altitude
Rises 19:44:33 0° 269° (W) 2,624 5.5 -30.3°
Reaches altitude 10° 19:46:55 10° 260° (W) 1,738 4.3 -30.8°
Enters shadow 19:48:36 21° 245° (WSW) 1,186 3.1 -31.1°
